Вернуться в каталог

YAOGAN 31 ADAPTER

АктивенLEO
NORAD 47859·DEBRIS·🇨🇳 China
Это название спутника еще не подтверждено официальными источниками.

Запущен Mar 13, 2021 с Jiuquan Satellite Launch Center

Loading…

Ближайшие Пролёты (ближайшие 24 часа)

TLE

СвежийSource: Space-Track

Эпоха: Sep 14, 2026, 15:45 UTC

1 47859U 21020F   26257.65671771 -.00000072  00000-0  27892-4 0  9992
2 47859  63.4084  36.5353 0179903   2.1079 358.0666 13.44652716270432

Отслеживайте YAOGAN 31 ADAPTER в реальном времени с AllMySat

Download on the App Store